www.pogodaiklimat.ru

Погода и климат >> Архив погоды >> Бельгия >> Зебрюгге


ПОГОДА в Зебрюгге

  • Прогноз погоды в Зебрюгге
  • Монитор погоды в Зебрюгге

АРХИВ ПОГОДЫ в Зебрюгге

Время (UTC), дата Ветер
(напр.,м/с)
 
Видим.   Явления Облачность Т
(С)
Тd
(С)
f
(%)
Тe
(С)
Тes
(С)
Комфортность P
(гПа)
Po
(гПа)
Тmin
(С)
Tmax
(С)
R
(мм)
R24
(мм)
S
(см)
22 17.06 С 2 н/о н/о +17.0 +12.6 75 +17 +17 1017.6 1016.0
23 17.06 С 1 н/о н/о +16.9 +12.6 76 +18 +18 1017.7 1016.1
00 18.06 З 2 н/о н/о +16.5 +11.9 74 +17 +17 1017.6 1016.0
01 18.06 ЮЗ 1 н/о н/о +16.4 +11.2 71 +17 +17 1017.1 1015.5
02 18.06 З 3 н/о н/о +16.0 +11.7 76 +16 +16 1016.8 1015.2
03 18.06 З 2 н/о н/о +16.0 +12.1 78 +16 +16 1016.5 1014.9
04 18.06 СЗ 1
{2}
н/о н/о +15.7 +12.1 79 +16 +16 1016.2 1014.6
05 18.06 СЗ 2
{3}
н/о н/о +16.3 +12.8 80 +16 +16 1016.4 1014.8
06 18.06 СЗ 2
{4}
н/о н/о +17.1 +12.9 76 +17 +17 1016.2 1014.6 +15.7
07 18.06 С 2
{3}
н/о н/о +17.1 +12.6 75 +17 +17 1016.4 1014.8
08 18.06 СВ 2
{3}
н/о н/о +18.2 +13.2 73 +19 +19 1015.8 1014.2
09 18.06 С 2
{3}
н/о н/о +18.1 +13.1 73 +19 +19 1015.7 1014.1
10 18.06 С 3
{4}
н/о н/о +18.5 +13.9 75 +19 +19 1015.5 1013.9
11 18.06 С 4
{5}
н/о н/о +18.5 +13.6 73 +19 +19 1015.3 1013.7
12 18.06 СВ 4
{5}
н/о н/о +18.8 +14.0 74 +20 +20 1014.7 1013.1
13 18.06 СВ 5
{5}
н/о н/о +19.1 +13.9 72 +20 +20 1014.4 1012.8
14 18.06 С 6
{6}
н/о н/о +18.6 +14.1 75 +19 +19 1013.9 1012.3
15 18.06 н/о
09 19.06 н/о н/о +17.7 +15.2 85 1008.5 1006.9
10 19.06 н/о
12 19.06 н/о
13 19.06 СЗ 4
{5}
н/о н/о +19.9 +15.9 78 +22 +22 комфорт 1007.7 1006.2
14 19.06 СЗ 4
{6}
н/о н/о +18.6 +14.6 78 +19 +19 1007.7 1006.1
15 19.06 СЗ 5
{6}
н/о н/о +19.4 +15.0 76 +21 +21 комфорт 1007.4 1005.8
16 19.06 З 5
{7}
н/о н/о +18.5 +14.6 78 +19 +19 1007.4 1005.8
17 19.06 З 4
{6}
н/о н/о +18.9 +15.0 78 +20 +20 1007.4 1005.8
18 19.06 СЗ 4
{8}
н/о н/о +18.7 +14.6 77 +19 +19 1008.0 1006.4 +19.9 3
19 19.06 З 3
{4}
н/о н/о +17.1 +13.7 80 +17 +17 1008.1 1006.5
20 19.06 ЮЗ 2
{4}
н/о н/о +17.1 +14.1 83 +17 +17 1009.1 1007.5
21 19.06 ЮЗ 4
{6}
н/о н/о +17.0 +14.4 85 +17 +17 1009.2 1007.6
22 19.06 ЮЗ 3 н/о н/о +16.8 +14.5 86 +17 +17 1009.3 1007.7
23 19.06 н/о
00 20.06 ЮЗ 7 н/о н/о +17.0 +15.1 89 +16 +16 1009.9 1008.3
01 20.06 ЮЗ 4 н/о н/о +16.9 +14.9 88 +16 +16 1009.9 1008.3
02 20.06 н/о
03 20.06 н/о
04 20.06 ЮЗ 6
{8}
н/о н/о +15.3 +13.4 88 +14 +14 1010.2 1008.6
05 20.06 ЮЗ 6
{10}
н/о н/о +15.2 +13.2 88 +14 +14 1010.3 1008.7
06 20.06 ЮЗ 7
{10}
н/о н/о +15.3 +13.2 87 +13 +13 1010.6 1009.0 +15.2 0.1
07 20.06 ЮЗ 7
{10}
н/о н/о +15.4 +13.4 88 +14 +14 1011.0 1009.4
08 20.06 н/о
09 20.06 З 6
{9}
н/о н/о +16.7 +14.2 85 +16 +16 1012.3 1010.7
10 20.06 н/о
11 20.06 н/о н/о +18.4 +14.4 78 1013.1 1011.5
12 20.06 З 6
{9}
н/о н/о +18.2 +13.6 75 +18 +18 1013.5 1011.9
13 20.06 н/о
14 20.06 З 7
{12}
н/о н/о +18.4 +12.4 68 +18 +18 1014.2 1012.6
15 20.06 З 7
{12}
н/о н/о +18.3 +11.4 64 +18 +18 1014.5 1012.9
16 20.06 З 7
{11}
н/о н/о +18.3 +11.7 65 +18 +18 1014.5 1012.9
17 20.06 З 8
{13}
н/о н/о +18.0 +11.0 64 +17 +17 1014.9 1013.2
18 20.06 З 8
{13}
н/о н/о +17.7 +10.8 64 +17 +17 1015.0 1013.4 +18.5
19 20.06 н/о 1061.5
21 20.06 н/о
22 20.06 Ю 6 н/о н/о +14.3 +9.1 71 +12 +12 1016.3 1014.7
23 20.06 ЮЗ 5 н/о н/о +13.5 +9.0 74 +12 +12 1016.6 1014.9
00 21.06 Ю 5 н/о н/о +12.8 +9.8 82 +11 +11 1016.7 1015.0
01 21.06 Ю 6 н/о н/о +12.4 +10.1 86 +10 +10 1017.0 1015.4
02 21.06 ЮЗ 6 н/о н/о +12.3 +10.4 88 +10 +10 1017.2 1015.5
03 21.06 ЮЗ 6 н/о н/о +12.4 +10.8 90 +10 +10 1017.3 1015.7
04 21.06 ЮЗ 6
{8}
н/о н/о +12.3 +10.8 91 +10 +10 1017.5 1015.9
05 21.06 ЮЗ 6
{7}
н/о н/о +12.1 +10.8 92 +9 +9 1017.8 1016.1
06 21.06 ЮЗ 4
{9}
н/о н/о +13.6 +12.2 91 +12 +12 1018.2 1016.6 +12.0
07 21.06 З 6
{8}
н/о н/о +15.1 +13.3 89 +13 +13 1018.9 1017.3
08 21.06 З 5
{8}
н/о н/о +16.1 +12.8 81 +15 +15 1019.3 1017.7
09 21.06 З 6
{8}
н/о н/о +16.1 +11.1 72 +15 +15 1019.7 1018.0
10 21.06 З 6
{8}
н/о н/о +16.8 +10.1 65 +16 +16 1020.2 1018.6
11 21.06 З 7
{9}
н/о н/о +17.1 +10.3 64 +16 +16 1020.6 1019.0
12 21.06 З 6
{10}
н/о н/о +17.4 +9.1 58 +17 +17 1020.9 1019.3
13 21.06 З 6
{9}
н/о н/о +17.7 +8.7 56 +17 +17 1021.3 1019.7
14 21.06 З 5
{8}
н/о н/о +17.8 +9.3 57 +17 +17 1021.3 1019.7
15 21.06 н/о
16 21.06 СЗ 4
{6}
н/о н/о +17.5 +9.0 57 +17 +17 1021.5 1019.9
17 21.06 СЗ 4
{6}
н/о н/о +17.4 +9.1 58 +17 +17 1021.6 1020.0
18 21.06 СЗ 4
{9}
н/о н/о +17.1 +8.8 58 +17 +17 1021.9 1020.3 +18.1
19 21.06 н/о
20 21.06 С 3
{5}
н/о н/о +16.4 +9.5 64 +16 +16 1022.4 1020.8
21 21.06 С 2
{4}
н/о н/о +16.0 +9.8 67 +16 +16 1022.8 1021.2
22 21.06 СВ 3 н/о н/о +15.9 +9.6 66 +15 +15 1023.3 1021.6
23 21.06 В 3 н/о н/о +15.4 +9.0 66 +15 +15 1023.5 1021.9
00 22.06 В 3 н/о н/о +15.2 +9.5 69 +15 +15 1023.6 1022.0
01 22.06 СВ 3 н/о н/о +15.5 +10.2 71 +15 +15 1023.3 1021.6
02 22.06 В 3 н/о н/о +15.1 +10.3 73 +14 +14 1023.2 1021.5
03 22.06 В 4 н/о н/о +14.9 +11.2 79 +14 +14 1023.0 1021.4
04 22.06 В 3
{5}
н/о н/о +14.6 +11.1 80 +14 +14 1023.0 1021.4
05 22.06 В 4
{6}
н/о н/о +15.3 +11.1 76 +14 +14 1023.1 1021.4
06 22.06 СВ 4
{7}
н/о н/о +15.6 +10.6 72 +15 +15 1023.3 1021.7 +14.5
07 22.06 СВ 4
{6}
н/о н/о +16.2 +10.9 71 +16 +16 1023.3 1021.6
08 22.06 СВ 5
{6}
н/о н/о +16.6 +11.3 71 +16 +16 1023.1 1021.5
09 22.06 н/о
12 24.06 н/о
13 24.06 н/о н/о +25.3 +17.7 63 1017.6 1016.0
14 24.06 н/о
15 24.06 н/о
16 24.06 СЗ 4
{8}
н/о н/о +20.7 +15.3 71 +24 +24 комфорт 1018.1 1016.5
17 24.06 С 2
{4}
н/о н/о +20.0 +15.9 77 +23 +23 комфорт 1017.6 1016.0
18 24.06 С 2
{9}
н/о н/о +20.7 +16.6 77 +25 +25 комфорт 1017.5 1015.9 +27.7
19 24.06 З 2
{3}
н/о н/о +20.8 +16.9 78 +25 +25 комфорт 1017.7 1016.1
20 24.06 СЗ 2
{5}
н/о н/о +20.3 +16.5 79 +24 +24 комфорт 1017.7 1016.1
21 24.06 СЗ 4
{5}
н/о н/о +19.2 +15.8 81 +21 +21 комфорт 1018.2 1016.6

 

Местоположение метеостанции Зебрюгге (Бельгия): широта 51.33 долгота 3.20 высота над уровнем моря 7 м.

В архиве по умолчанию представлена погода в Зебрюгге за последнюю неделю. Архивные данные за месяц целиком и за предыдущие месяцы, начиная с января 2011 года, Вы можете получить, выбрав интересующий диапазон дат из раскрывающегося списка и нажав кнопку "Ввод!".


*Определитесь, кто Вы:
робот инопланетянин человек

Внимание! Время в таблицах - всемирное. Для получения местного времени необходимо прибавить поправку, которая равна 1 ч.

Смотрите также архив погоды в соседних городах и на ближайших метеорологических станциях:

Погода в Цадзанде (Нидерланды) (14 км)
Погода на Отмели Vlakte Van Raan (Нидерланды) (19 км)
Погода в Остенде (Бельгия) (27 км)
Погода в Флиссингене (Нидерланды) (31 км)
Погода в Хуфдплате (Нидерланды) (33 км)
Погода в Генте (Бельгия) (46 км)
Погода в Коксейде (Бельгия) (47 км)
Погода в Остершельде (Нидерланды) (48 км)
Погода в Вестдорпе (Нидерланды) (48 км)
Погода в Бейтеме (Бельгия) (48 км)

Пояснения к столбцам:

Ветер - указаны скорость ветра в м/с - средняя за 10 мин, порывы в срок и между сроками (в фигурных скобках) и направление, откуда дует ветер: С - северный, СВ - северо-восточный, В - восточный, ЮВ - юго-восточный, Ю - южный, ЮЗ - юго-западный, З - западный, СЗ - северо-западный.
Видимость - горизонтальная дальность видимости в метрах или километрах. При видимости от 1 до 10 км при отсутствии осадков обычно наблюдается дымка, при ухудшении видимости до 1 км и менее - туман. В сухую погоду видимость может ухудшаться дымом, пылью или мглою.
Явления - указаны атмосферные явления, наблюдавшиеся в срок или в последний час перед сроком; фигурными скобками обозначены явления, наблюдавшиеся между сроками (за 1-3 часа до срока); квадратными скобками обозначены град или гололедные отложения с указанием их диаметра в мм.
Облачность - указаны через наклонную черту общая и нижняя облачность в баллах и высота нижней границы облаков в метрах; квадратными скобками обозначены формы облаков: Ci - перистые, Cs - перисто-слоистые, Cc - перисто-кучевые, Ac - высококучевые, As - высокослоистые, Sc - слоисто-кучевые, Ns - слоисто-дождевые, Cu - кучевые, Cb - кучево-дождевые. Подробнее классификацию облаков см. в Атласе облаков (PDF).
T - Температура воздуха - температура, измеренная на высоте 2 м над землей.
Td - Температура точки росы - температура, при понижении до которой содержащийся в воздухе водяной пар достигнет насыщения.
f - Относительная влажность воздуха - влажноcть воздуха, измеренная на высоте 2 м над землей.
Te - Эффективная температура - температура, которую ощущает одетый по сезону человек в тени. Характеристика душности погоды. При расчете учитывается влияние влажности воздуха и скорости ветра на теплоощущения человека.
Tes - Эффективная температура на солнце - температура, которую ощущает человек, с поправкой на солнечный нагрев. Характеристика знойности погоды. Зависит от высоты солнца над горизонтом, облачности и скорости ветра. Ночью, в пасмурную погоду, а также при ветре 12 м/с и более поправка равна нулю.
P - Атмосферное давление - приведенное к уровню моря атмосферное давление.
Po - Атмосферное давление - измеренное на уровне метеостанции атмосферное давление.
Tmin - Минимальная температура - минимум температуры воздуха на высоте 2 м над землей.
Tmax - Максимальная температура - максимум температуры воздуха на высоте 2 м над землей.
R - Количество осадков - Количество выпавших осадков за период времени, мм. При наведении курсора мыши на число - период времени, за который выпало указанное количество осадков.
R24 - Количество осадков - Количество выпавших осадков за 24 часа, мм.
S - Снежный покров - Высота снежного покрова, см. При наведении курсора мыши на число - состояние снежного покрова и степень покрытия местности в баллах.